Location: Phoenix
(33.4480°N, 112.0730°W)
Time: 16:06:37
(UTC-07:00)

X-37B - Visible Passes

Search period start: 08 August 2022 00:00
Search period end: 18 August 2022 00:00
Orbit: 328 x 343 km, 45.0° (Epoch: 27 July)

Date Brightness Start Highest point End Pass type
(mag) Time Alt. Az. Time Alt. Az. Time Alt. Az.
08 Aug 3.3 04:16:12 10° NNW 04:16:52 11° N 04:17:32 10° N visible
11 Aug 3.3 05:18:04 10° NNW 05:19:40 14° NNE 05:21:15 10° NE visible
13 Aug 3.4 04:23:31 10° NNW 04:25:06 14° NNE 04:26:40 10° NE visible
14 Aug 2.6 04:43:22 10° NW 04:45:50 25° NNE 04:48:18 10° E visible
15 Aug 3.6 03:30:46 13° NNE 03:30:46 13° NNE 03:32:05 10° NE visible
15 Aug 0.6 05:03:31 10° NW 05:06:24 69° NNE 05:09:16 10° ESE visible
16 Aug 2.6 03:51:17 24° NNE 03:51:17 24° NNE 03:53:43 10° E visible
16 Aug 1.2 05:24:09 10° WNW 05:26:47 31° SW 05:29:23 10° SSE visible
17 Aug 0.8 04:12:12 58° E 04:12:12 58° E 04:14:42 10° ESE visible
